Date String (YYYY-MM-DD hh:mm:ss) UTC,Instrument flags,absolute air pressure of the measurement (hPa),sample flow rate (lpm),inlet stack bypass flow (lpm),air temperature of the measurement (°C),ambient temperature measured by the external sensor (°C),aerosol sample conditioner tube jacket temperature (°C),OPC LED temperature (°C),internal box temperature (°C),relative humidity of the measurement (%),span deviation,mass concentration of particles derived from Lorenz-Mie calculation of OPC scattering (μg/m³),mass concentration of particles derived from Lorenz-Mie calculation of OPC scattering (μg/m³),mass concentration of particles derived from Lorenz-Mie calculation of OPC scattering (μg/m³)
DateTimeUTC,F1_M11,P_M11,Q1_M11,Q2_M11,T1_M11,T2_M11,T3_M11,T4_M11,T5_M11,U1_M11,ZSPAN_M11,X0_M11,X2_M11,X1_M11
2024-06-18 05:00:00,SystemResetWarning,0814.6,5.00,000.00,029.5,027.8,000.0,038.0,031.0,010.5,0000.0,0010.05,0003.20,0002.00
2024-06-18 05:01:00,SystemResetWarning,0814.7,5.01,000.00,029.5,028.2,000.0,037.9,031.1,010.5,0000.0,0009.62,0003.22,0002.02
2024-06-18 05:02:00,SystemResetWarning,0814.7,5.01,000.00,029.6,028.4,000.0,037.9,031.3,010.6,0000.0,0009.40,0003.28,0002.03
2024-06-18 05:03:00,SystemResetWarning,0814.7,5.01,000.00,029.6,028.6,000.0,037.9,031.3,010.5,0000.0,0009.42,0003.30,0002.04
2024-06-18 05:04:00,SystemResetWarning,0814.7,4.98,000.00,029.7,028.8,000.0,037.9,031.4,010.4,0000.0,0009.76,0003.37,0002.06
2024-06-18 05:05:00,SystemResetWarning,0814.8,5.00,000.00,029.7,029.0,000.0,038.0,031.5,010.4,0000.0,0009.41,0003.37,0002.06
2024-06-18 05:06:00,SystemResetWarning,0814.8,5.00,000.00,029.8,029.1,000.0,038.0,031.6,010.4,0000.0,0009.43,0003.36,0002.07
2024-06-18 05:07:00,SystemResetWarning,0814.8,5.01,000.00,029.9,029.2,000.0,038.0,031.7,010.4,0000.0,0009.81,0003.35,0002.07
2024-06-18 05:08:00,SystemResetWarning,0814.9,5.00,000.00,029.9,029.4,000.0,038.0,031.8,010.4,0000.0,0009.45,0003.35,0002.07
2024-06-18 05:09:00,SystemResetWarning,0814.9,4.99,000.00,030.0,029.5,000.0,038.1,031.8,010.3,0000.0,0010.15,0003.34,0002.06
2024-06-18 05:10:00,SystemResetWarning,0814.9,4.99,000.00,030.1,029.6,000.0,038.1,031.9,010.3,0000.0,0009.72,0003.34,0002.05
2024-06-18 05:11:00,SystemResetWarning,0815.0,4.99,000.00,030.1,029.1,000.0,038.2,031.6,010.3,0000.0,0009.50,0003.32,0002.05
2024-06-18 05:12:00,SystemResetWarning,0814.9,5.01,000.00,029.7,026.9,000.0,038.2,030.6,010.6,0000.0,0009.35,0003.31,0002.04
2024-06-18 05:13:00,SystemResetWarning,0814.9,5.02,000.00,029.5,026.7,000.0,038.2,030.4,010.7,0000.0,0009.18,0003.27,0002.03
2024-06-18 05:14:00,SystemResetWarning,0815.0,4.99,000.00,029.4,027.1,000.0,038.1,030.6,010.7,0000.0,0009.03,0003.27,0002.03
2024-06-18 05:15:00,SystemResetWarning,0815.1,5.00,000.00,029.4,027.5,000.0,038.0,030.8,010.7,0000.0,0008.70,0003.21,0002.00
2024-06-18 05:16:00,SystemResetWarning,0815.1,5.00,000.00,029.5,027.8,000.0,038.0,031.0,010.7,0000.0,0008.49,0003.24,0002.02
2024-06-18 05:17:00,SystemResetWarning,0815.1,5.00,000.00,029.5,028.2,000.0,037.9,031.2,010.7,0000.0,0008.39,0003.20,0002.02
2024-06-18 05:18:00,SystemResetWarning,0815.2,5.00,000.00,029.6,028.4,000.0,037.9,031.3,010.6,0000.0,0008.27,0003.19,0002.02
2024-06-18 05:19:00,SystemResetWarning,0815.2,5.00,000.00,029.6,028.6,000.0,037.9,031.4,010.7,0000.0,0008.16,0003.20,0002.03
2024-06-18 05:20:00,SystemResetWarning,0815.2,4.99,000.00,029.7,028.8,000.0,037.9,031.5,010.7,0000.0,0007.86,0003.25,0002.05
2024-06-18 05:21:00,SystemResetWarning,0815.3,4.99,000.00,029.8,029.0,000.0,037.9,031.6,010.7,0000.0,0007.80,0003.26,0002.06
2024-06-18 05:22:00,SystemResetWarning,0815.3,5.01,000.00,029.8,029.1,000.0,038.0,031.6,010.7,0000.0,0007.87,0003.28,0002.07
2024-06-18 05:23:00,SystemResetWarning,0815.3,5.01,000.00,029.9,029.3,000.0,038.0,031.7,010.6,0000.0,0007.81,0003.28,0002.08
2024-06-18 05:24:00,SystemResetWarning,0815.3,5.00,000.00,030.0,029.4,000.0,038.0,031.8,010.6,0000.0,0008.33,0003.34,0002.08
2024-06-18 05:25:00,SystemResetWarning,0815.3,5.00,000.00,030.0,029.5,000.0,038.0,031.8,010.6,0000.0,0008.49,0003.33,0002.07
2024-06-18 05:26:00,SystemResetWarning,0815.3,4.99,000.00,030.1,029.5,000.0,038.1,031.9,010.5,0000.0,0008.90,0003.39,0002.11
2024-06-18 05:27:00,SystemResetWarning,0815.3,4.99,000.00,029.9,027.8,000.0,038.2,031.0,010.5,0000.0,0009.60,0003.44,0002.11
2024-06-18 05:28:00,SystemResetWarning,0815.2,5.02,000.00,029.6,026.6,000.0,038.2,030.4,010.7,0000.0,0010.81,0003.46,0002.12
2024-06-18 05:29:00,SystemResetWarning,0815.2,5.00,000.00,029.5,026.9,000.0,038.2,030.5,010.7,0000.0,0011.22,0003.47,0002.13
2024-06-18 05:30:00,SystemResetWarning,0815.2,4.99,000.00,029.4,027.2,000.0,038.0,030.6,010.7,0000.0,0011.82,0003.50,0002.13
2024-06-18 05:31:00,SystemResetWarning,0815.3,5.00,000.00,029.5,027.6,000.0,038.0,030.9,010.7,0000.0,0011.52,0003.48,0002.13
2024-06-18 05:32:00,SystemResetWarning,0815.3,5.01,000.00,029.5,028.0,000.0,037.9,031.1,010.7,0000.0,0011.54,0003.49,0002.13
2024-06-18 05:33:00,SystemResetWarning,0815.3,5.00,000.00,029.6,028.3,000.0,037.9,031.2,010.7,0000.0,0011.93,0003.50,0002.12
2024-06-18 05:34:00,SystemResetWarning,0815.3,5.00,000.00,029.6,028.5,000.0,037.9,031.3,010.6,0000.0,0012.57,0003.50,0002.11
2024-06-18 05:35:00,SystemResetWarning,0815.3,4.99,000.00,029.7,028.7,000.0,037.9,031.4,010.6,0000.0,0012.84,0003.46,0002.12
2024-06-18 05:36:00,SystemResetWarning,0815.3,5.00,000.00,029.7,028.9,000.0,037.9,031.5,010.6,0000.0,0014.09,0003.38,0002.11
2024-06-18 05:37:00,SystemResetWarning,0815.3,5.00,000.00,029.8,029.1,000.0,037.9,031.6,010.6,0000.0,0014.86,0003.40,0002.11
2024-06-18 05:38:00,SystemResetWarning,0815.2,5.00,000.00,029.9,029.2,000.0,038.0,031.6,010.5,0000.0,0014.43,0003.35,0002.09
2024-06-18 05:39:00,SystemResetWarning,0815.3,5.00,000.00,029.9,029.3,000.0,038.0,031.7,010.4,0000.0,0013.12,0003.35,0002.10
2024-06-18 05:40:00,SystemResetWarning,0815.2,5.00,000.00,030.0,029.4,000.0,038.0,031.8,010.4,0000.0,0012.29,0003.36,0002.11
2024-06-18 05:41:00,SystemResetWarning,0815.2,5.01,000.00,030.1,029.5,000.0,038.1,031.9,010.3,0000.0,0011.70,0003.36,0002.10
2024-06-18 05:42:00,SystemResetWarning,0815.2,4.99,000.00,030.1,029.6,000.0,038.1,031.9,010.2,0000.0,0011.34,0003.31,0002.08
2024-06-18 05:43:00,SystemResetWarning,0815.1,4.99,000.00,030.0,027.8,000.0,038.2,031.0,010.3,0000.0,0011.23,0003.27,0002.07
2024-06-18 05:44:00,SystemResetWarning,0815.1,5.00,000.00,029.5,025.6,000.0,038.2,029.9,010.5,0000.0,0010.99,0003.28,0002.07
2024-06-18 05:45:00,SystemResetWarning,0815.1,5.01,000.00,029.2,025.6,000.0,038.1,029.8,010.7,0000.0,0010.48,0003.29,0002.08
2024-06-18 05:46:00,SystemResetWarning,0815.1,5.00,000.00,029.1,026.2,000.0,038.0,030.0,010.8,0000.0,0010.00,0003.33,0002.09
2024-06-18 05:47:00,SystemResetWarning,0815.1,4.99,000.00,029.1,026.6,000.0,037.9,030.3,010.8,0000.0,0008.51,0003.36,0002.08
2024-06-18 05:48:00,SystemResetWarning,0815.2,5.00,000.00,029.1,027.1,000.0,037.8,030.5,010.8,0000.0,0008.19,0003.35,0002.09
2024-06-18 05:49:00,SystemResetWarning,0815.1,5.00,000.00,029.2,027.5,000.0,037.7,030.7,010.7,0000.0,0009.06,0003.35,0002.09
2024-06-18 05:50:00,SystemResetWarning,0815.1,5.00,000.00,029.2,027.8,000.0,037.7,030.8,010.7,0000.0,0009.75,0003.34,0002.08
2024-06-18 05:51:00,SystemResetWarning,0815.1,5.01,000.00,029.3,028.1,000.0,037.7,031.0,010.7,0000.0,0009.65,0003.35,0002.07
2024-06-18 05:52:00,SystemResetWarning,0815.2,5.00,000.00,029.3,028.3,000.0,037.7,031.1,010.6,0000.0,0009.67,0003.36,0002.07
2024-06-18 05:53:00,SystemResetWarning,0815.2,5.00,000.00,029.4,028.6,000.0,037.7,031.2,010.6,0000.0,0009.83,0003.40,0002.07
2024-06-18 05:54:00,SystemResetWarning,0815.2,5.00,000.00,029.5,028.7,000.0,037.7,031.3,010.8,0000.0,0009.93,0003.47,0002.08
2024-06-18 05:55:00,SystemResetWarning,0815.2,5.00,000.00,029.6,028.9,000.0,037.7,031.4,010.9,0000.0,0010.07,0003.50,0002.08
2024-06-18 05:56:00,SystemResetWarning,0815.2,5.00,000.00,029.6,029.0,000.0,037.8,031.4,011.1,0000.0,0010.00,0003.50,0002.08
2024-06-18 05:57:00,SystemResetWarning,0815.3,5.00,000.00,029.7,029.1,000.0,037.8,031.5,011.1,0000.0,0009.96,0003.49,0002.08
2024-06-18 05:58:00,SystemResetWarning,0815.3,5.00,000.00,029.8,029.2,000.0,037.8,031.6,011.2,0000.0,0009.75,0003.46,0002.09
2024-06-18 05:59:00,SystemResetWarning,0815.3,5.00,000.00,029.8,029.3,000.0,037.8,031.7,011.4,0000.0,0009.27,0003.46,0002.08
